sat.trackr.live / text

‹ back to catalog

STARLINK-35595

NORAD 66101 · 2025-236R

PAYLOAD ACTIVE UNKNOWN

§ Identity

Operator
Country
US
Launch date
2025-10-19
Launch site
AFWTR
Launch vehicle
Mass (kg)
RCS (m²)

Purposes: comms

External: N2YO · Heavens-Above · Gunter

§ Orbital elements

Epoch: 2026-09-20T13:17:35.530944Z

Period
93.85 min
Inclination
53.1583°
Eccentricity
0.0001337
Mean motion
15.34401653 rev/d
Perigee alt
461.8 km
Apogee alt
463.6 km
Semi-major
6,840.8 km
B*
2.8457e-4
RAAN
275.5970°
Arg perigee
72.3837°
Mean anomaly
287.7311°
Rev number
5,276

§ Raw data

STARLINK-355951 66101U 25236R   26263.55388346  .00009251  00000+0  28457-3 0  99982 66101  53.1583 275.5970 0001337  72.3837 287.7311 15.34401653 52761

JSON: /api/v1/satellites/66101 · /tle

For live sub-satellite position, see the globe view (requires WebGL).

§ Visibility from observer

Set your observer location to see the next 7 days of passes ≥ 10°. The values pass through the URL so the page stays shareable.

No JS? Fill the form by hand. The geolocation button needs JavaScript.